Location: Dead Woman Crossing
(43.5369°N, 106.3228°W)
Time: 10:03:13
(UTC+00:00)

QB50P2 - Pass Details

Date: 30 June 2022
Orbit: 590 x 605 km, 97.9° (Epoch: 14 August)

Event Time Altitude Azimuth Distance (km) Brightness Sun altitude
Rises 07:58:26 0° 21° (NNE) 2,859 ? -22.3°
Reaches altitude 10° 08:00:45 10° 29° (NNE) 1,953 ? -22.2°
Maximum altitude 08:04:42 37° 98° (E) 939 ? -22.1°
Enters shadow 08:05:22 35° 120° (ESE) 982 ? -22.1°
